2016-08-19 00:02:41 r, 18.03m,0000000006Hz,0000085329c,0000000.185s, 033.5C,00002195
2016-08-19 00:12:41 r, 18.03m,0000000005Hz,0000085470c,0000000.185s, 033.1C,00002195
2016-08-19 00:22:41 r, 17.82m,0000000007Hz,0000070210c,0000000.152s, 033.1C,00002195
2016-08-19 00:32:41 r, 17.97m,0000000006Hz,0000080582c,0000000.175s, 033.1C,00002195
2016-08-19 00:42:44 r, 17.88m,0000000007Hz,0000073951c,0000000.160s, 033.1C,00002195
2016-08-19 00:52:41 r, 16.87m,0000000016Hz,0000029281c,0000000.064s, 032.8C,00002195
2016-08-19 01:02:41 r, 17.19m,0000000012Hz,0000039392c,0000000.085s, 033.1C,00002195
2016-08-19 01:12:42 r, 16.46m,0000000023Hz,0000020091c,0000000.044s, 033.1C,00002195
2016-08-19 01:22:41 r, 16.17m,0000000031Hz,0000015252c,0000000.033s, 033.1C,00002195
2016-08-19 01:32:41 r, 16.50m,0000000022Hz,0000020810c,0000000.045s, 033.5C,00002195
2016-08-19 01:42:43 r, 17.75m,0000000007Hz,0000066034c,0000000.143s, 033.5C,00002195
2016-08-19 01:52:41 r, 17.21m,0000000012Hz,0000039893c,0000000.087s, 033.5C,00002195
2016-08-19 02:02:41 r, 17.64m,0000000008Hz,0000059350c,0000000.129s, 033.1C,00002195
2016-08-19 02:12:41 r, 17.32m,0000000010Hz,0000044159c,0000000.096s, 033.1C,00002195
2016-08-19 02:22:41 r, 17.19m,0000000012Hz,0000039154c,0000000.085s, 032.8C,00002195
2016-08-19 02:32:41 r, 17.74m,0000000007Hz,0000064902c,0000000.141s, 032.8C,00002195
2016-08-19 02:42:41 r, 17.82m,0000000007Hz,0000069942c,0000000.152s, 032.8C,00002195
2016-08-19 02:52:42 r, 16.57m,0000000021Hz,0000022144c,0000000.048s, 032.8C,00002195
2016-08-19 03:02:41 r, 17.62m,0000000008Hz,0000057633c,0000000.125s, 032.5C,00002195
2016-08-19 03:12:42 r, 17.92m,0000000006Hz,0000076463c,0000000.166s, 032.5C,00002195
2016-08-19 03:22:41 r, 17.44m,0000000009Hz,0000049210c,0000000.107s, 032.5C,00002195
2016-08-19 03:32:44 r, 16.75m,0000000018Hz,0000026115c,0000000.057s, 032.5C,00002195
2016-08-19 03:42:42 r, 16.30m,0000000026Hz,0000017284c,0000000.038s, 032.5C,00002195
2016-08-19 03:52:42 r, 17.91m,0000000006Hz,0000076126c,0000000.165s, 032.5C,00002195
2016-08-19 04:02:41 r, 18.04m,0000000005Hz,0000085427c,0000000.185s, 032.5C,00002195
2016-08-19 04:12:41 r, 18.06m,0000000005Hz,0000087287c,0000000.189s, 032.2C,00002195
2016-08-19 04:22:42 r, 18.08m,0000000005Hz,0000088282c,0000000.192s, 032.2C,00002195
2016-08-19 04:32:42 r, 18.09m,0000000005Hz,0000089120c,0000000.193s, 031.5C,00002195
2016-08-19 04:42:41 r, 18.11m,0000000005Hz,0000090477c,0000000.196s, 031.5C,00002195
2016-08-19 04:52:42 r, 18.08m,0000000005Hz,0000089288c,0000000.194s, 031.2C,00002195
2016-08-19 05:02:42 r, 18.01m,0000000005Hz,0000083584c,0000000.181s, 030.9C,00002195
2016-08-19 05:12:42 r, 17.70m,0000000007Hz,0000062813c,0000000.136s, 030.9C,00002195
2016-08-19 05:22:41 r, 16.94m,0000000014Hz,0000031001c,0000000.067s, 030.6C,00002195
2016-08-19 05:32:41 r, 16.15m,0000000030Hz,0000015050c,0000000.033s, 030.6C,00002195
2016-08-19 05:42:43 r, 14.66m,0000000120Hz,0000003801c,0000000.008s, 030.2C,00002195
2016-08-19 05:52:42 r, 12.65m,0000000773Hz,0000000000c,0000000.000s, 030.2C,00002195
2016-08-19 06:02:42 r, 10.81m,0000004226Hz,0000000000c,0000000.000s, 029.9C,00002195
2016-08-19 06:12:42 r, 08.90m,0000024530Hz,0000000000c,0000000.000s, 029.9C,00002195
2016-08-19 06:22:42 r, 07.80m,0000068013Hz,0000000000c,0000000.000s, 029.6C,00002195
2016-08-19 06:32:42 r, 07.06m,0000133147Hz,0000000000c,0000000.000s, 029.9C,00002195
2016-08-19 06:42:42 r, 06.47m,0000229931Hz,0000000000c,0000000.000s, 029.6C,00002195
2016-08-19 06:52:42 r, 06.00m,0000353550Hz,0000000000c,0000000.000s, 029.6C,00002195
2016-08-19 07:02:42 r, 00.00m,0000430179Hz,0000000000c,0000000.000s, 029.6C,00002195
2016-08-19 07:12:42 r, 00.00m,0000517518Hz,0000000000c,0000000.000s, 029.6C,00002195
2016-08-19 07:22:42 r, 00.00m,0000564300Hz,0000000000c,0000000.000s, 029.6C,00002195
2016-08-19 07:32:42 r, 00.00m,0000564229Hz,0000000000c,0000000.000s, 029.9C,00002195
2016-08-19 07:42:42 r, 00.00m,0000564302Hz,0000000000c,0000000.000s, 029.9C,00002195
2016-08-19 07:52:44 r, 00.00m,0000564324Hz,0000000000c,0000000.000s, 030.2C,00002195
2016-08-19 08:02:42 r, 00.00m,0000564436Hz,0000000000c,0000000.000s, 030.6C,00002195
2016-08-19 08:12:43 r, 00.00m,0000564358Hz,0000000000c,0000000.000s, 030.9C,00002195
2016-08-19 08:22:42 r, 00.00m,0000564388Hz,0000000000c,0000000.000s, 031.2C,00002195
2016-08-19 08:32:42 r, 00.00m,0000564356Hz,0000000000c,0000000.000s, 031.5C,00002195
2016-08-19 08:42:42 r, 00.00m,0000564489Hz,0000000000c,0000000.000s, 031.9C,00002195
2016-08-19 08:52:42 r, 00.00m,0000564558Hz,0000000000c,0000000.000s, 032.2C,00002195
2016-08-19 09:02:42 r, 00.00m,0000564466Hz,0000000000c,0000000.000s, 032.5C,00002195
2016-08-19 09:12:42 r, 00.00m,0000564668Hz,0000000000c,0000000.000s, 034.1C,00002195
2016-08-19 09:22:42 r, 00.00m,0000564975Hz,0000000000c,0000000.000s, 036.4C,00002195
2016-08-19 09:32:42 r, 00.00m,0000565190Hz,0000000000c,0000000.000s, 038.6C,00002195
2016-08-19 09:42:42 r, 00.00m,0000565272Hz,0000000000c,0000000.000s, 040.2C,00002195
2016-08-19 09:52:43 r, 00.00m,0000565431Hz,0000000000c,0000000.000s, 041.5C,00002195
2016-08-19 10:02:42 r, 00.00m,0000565456Hz,0000000000c,0000000.000s, 042.2C,00002195
2016-08-19 10:12:42 r, 00.00m,0000565550Hz,0000000000c,0000000.000s, 043.1C,00002195
2016-08-19 10:22:42 r, 00.00m,0000565596Hz,0000000000c,0000000.000s, 044.4C,00002195
2016-08-19 10:32:42 r, 00.00m,0000565673Hz,0000000000c,0000000.000s, 044.4C,00002195
2016-08-19 10:42:43 r, 00.00m,0000565702Hz,0000000000c,0000000.000s, 045.4C,00002195
2016-08-19 10:52:42 r, 00.00m,0000565470Hz,0000000000c,0000000.000s, 043.8C,00002195
2016-08-19 11:02:42 r, 00.00m,0000565399Hz,0000000000c,0000000.000s, 042.2C,00002195
2016-08-19 11:12:42 r, 00.00m,0000565478Hz,0000000000c,0000000.000s, 043.1C,00002195
2016-08-19 11:22:42 r, 00.00m,0000565625Hz,0000000000c,0000000.000s, 044.8C,00002195
2016-08-19 11:32:42 r, 00.00m,0000565747Hz,0000000000c,0000000.000s, 046.7C,00002195
2016-08-19 11:42:42 r, 00.00m,0000565748Hz,0000000000c,0000000.000s, 046.4C,00002195
2016-08-19 11:52:42 r, 00.00m,0000565832Hz,0000000000c,0000000.000s, 047.3C,00002195
2016-08-19 12:02:42 r, 00.00m,0000565873Hz,0000000000c,0000000.000s, 048.3C,00002195
2016-08-19 12:12:42 r, 00.00m,0000565614Hz,0000000000c,0000000.000s, 046.4C,00002195
2016-08-19 12:22:44 r, 00.00m,0000565517Hz,0000000000c,0000000.000s, 044.4C,00002195
2016-08-19 12:32:42 r, 00.00m,0000565724Hz,0000000000c,0000000.000s, 046.4C,00002195
2016-08-19 12:42:42 r, 00.00m,0000565763Hz,0000000000c,0000000.000s, 047.3C,00002195
2016-08-19 12:52:43 r, 00.00m,0000565755Hz,0000000000c,0000000.000s, 047.3C,00002195
2016-08-19 13:02:42 r, 00.00m,0000565672Hz,0000000000c,0000000.000s, 046.4C,00002195
2016-08-19 13:12:42 r, 00.00m,0000565415Hz,0000000000c,0000000.000s, 044.1C,00002195
2016-08-19 13:22:42 r, 00.00m,0000565631Hz,0000000000c,0000000.000s, 045.4C,00002195
2016-08-19 13:32:43 r, 00.00m,0000565571Hz,0000000000c,0000000.000s, 045.1C,00002195
2016-08-19 13:42:42 r, 00.00m,0000565454Hz,0000000000c,0000000.000s, 044.4C,00002195
2016-08-19 13:52:42 r, 00.00m,0000565497Hz,0000000000c,0000000.000s, 044.1C,00002195
2016-08-19 14:02:42 r, 00.00m,0000565606Hz,0000000000c,0000000.000s, 045.4C,00002195
2016-08-19 14:12:42 r, 00.00m,0000565867Hz,0000000000c,0000000.000s, 047.0C,00002195
2016-08-19 14:22:42 r, 00.00m,0000566007Hz,0000000000c,0000000.000s, 049.3C,00002195
2016-08-19 14:32:42 r, 00.00m,0000565677Hz,0000000000c,0000000.000s, 046.4C,00002195
2016-08-19 14:42:42 r, 00.00m,0000565555Hz,0000000000c,0000000.000s, 045.4C,00002195
2016-08-19 14:52:42 r, 00.00m,0000565831Hz,0000000000c,0000000.000s, 047.0C,00002195
2016-08-19 15:02:43 r, 00.00m,0000565764Hz,0000000000c,0000000.000s, 047.7C,00002195
2016-08-19 15:12:43 r, 00.00m,0000565718Hz,0000000000c,0000000.000s, 048.0C,00002195
2016-08-19 15:22:42 r, 00.00m,0000565373Hz,0000000000c,0000000.000s, 044.4C,00002195
2016-08-19 15:32:42 r, 00.00m,0000565453Hz,0000000000c,0000000.000s, 044.1C,00002195
2016-08-19 15:42:42 r, 00.00m,0000565419Hz,0000000000c,0000000.000s, 044.4C,00002195
2016-08-19 15:52:42 r, 00.00m,0000565379Hz,0000000000c,0000000.000s, 042.8C,00002195
2016-08-19 16:02:42 r, 00.00m,0000565568Hz,0000000000c,0000000.000s, 045.1C,00002195
2016-08-19 16:12:42 r, 00.00m,0000565684Hz,0000000000c,0000000.000s, 047.3C,00002195
2016-08-19 16:22:42 r, 00.00m,0000565643Hz,0000000000c,0000000.000s, 046.7C,00002195
2016-08-19 16:32:42 r, 00.00m,0000565580Hz,0000000000c,0000000.000s, 046.4C,00002195
2016-08-19 16:42:42 r, 00.00m,0000565384Hz,0000000000c,0000000.000s, 044.8C,00002195
2016-08-19 16:52:43 r, 00.00m,0000565410Hz,0000000000c,0000000.000s, 044.1C,00002195
2016-08-19 17:02:43 r, 00.00m,0000565319Hz,0000000000c,0000000.000s, 043.1C,00002195
2016-08-19 17:12:43 r, 00.00m,0000565476Hz,0000000000c,0000000.000s, 043.8C,00002195
2016-08-19 17:22:44 r, 00.00m,0000565468Hz,0000000000c,0000000.000s, 044.1C,00002195
2016-08-19 17:32:42 r, 00.00m,0000565340Hz,0000000000c,0000000.000s, 043.5C,00002195
2016-08-19 17:42:42 r, 00.00m,0000565272Hz,0000000000c,0000000.000s, 043.1C,00002195
2016-08-19 17:52:43 r, 00.00m,0000565291Hz,0000000000c,0000000.000s, 043.5C,00002195
2016-08-19 18:02:45 r, 00.00m,0000565190Hz,0000000000c,0000000.000s, 042.2C,00002195
2016-08-19 18:12:42 r, 00.00m,0000565027Hz,0000000000c,0000000.000s, 040.9C,00002195
2016-08-19 18:22:43 r, 00.00m,0000564934Hz,0000000000c,0000000.000s, 039.9C,00002195
2016-08-19 18:32:42 r, 00.00m,0000564959Hz,0000000000c,0000000.000s, 040.2C,00002195
2016-08-19 18:42:44 r, 00.00m,0000564863Hz,0000000000c,0000000.000s, 039.9C,00002195
2016-08-19 18:52:42 r, 00.00m,0000564887Hz,0000000000c,0000000.000s, 039.3C,00002195
2016-08-19 19:02:42 r, 00.00m,0000564853Hz,0000000000c,0000000.000s, 039.0C,00002195
2016-08-19 19:12:42 r, 00.00m,0000564727Hz,0000000000c,0000000.000s, 038.3C,00002195
2016-08-19 19:22:42 r, 00.00m,0000564793Hz,0000000000c,0000000.000s, 038.6C,00002195
2016-08-19 19:32:44 r, 00.00m,0000564792Hz,0000000000c,0000000.000s, 038.0C,00002195
2016-08-19 19:42:42 r, 00.00m,0000564776Hz,0000000000c,0000000.000s, 037.7C,00002195
2016-08-19 19:52:43 r, 00.00m,0000564673Hz,0000000000c,0000000.000s, 037.0C,00002195
2016-08-19 20:02:42 r, 06.48m,0000228307Hz,0000000000c,0000000.000s, 036.0C,00002195
2016-08-19 20:12:42 r, 00.00m,0000564558Hz,0000000000c,0000000.000s, 035.7C,00002195
2016-08-19 20:22:43 r, 00.00m,0000411978Hz,0000000000c,0000000.000s, 034.1C,00002195
2016-08-19 20:32:42 r, 07.31m,0000105685Hz,0000000000c,0000000.000s, 032.8C,00002195
2016-08-19 20:42:42 r, 08.22m,0000045899Hz,0000000000c,0000000.000s, 031.9C,00002195
2016-08-19 20:52:42 r, 09.65m,0000012285Hz,0000000000c,0000000.000s, 031.5C,00002195
2016-08-19 21:02:45 r, 11.42m,0000002428Hz,0000000000c,0000000.000s, 031.2C,00002195
2016-08-19 21:12:42 r, 13.38m,0000000394Hz,0000000000c,0000000.000s, 030.9C,00002195
2016-08-19 21:22:43 r, 15.31m,0000000066Hz,0000006932c,0000000.015s, 031.2C,00002195
2016-08-19 21:32:43 r, 16.47m,0000000023Hz,0000020330c,0000000.044s, 030.9C,00002195
2016-08-19 21:42:42 r, 16.96m,0000000015Hz,0000031718c,0000000.069s, 031.2C,00002195
2016-08-19 21:52:42 r, 17.57m,0000000009Hz,0000055363c,0000000.120s, 031.2C,00002195
2016-08-19 22:02:42 r, 16.98m,0000000014Hz,0000032058c,0000000.070s, 031.5C,00002195
2016-08-19 22:12:42 r, 17.27m,0000000011Hz,0000042067c,0000000.091s, 031.5C,00002195
2016-08-19 22:22:42 r, 18.13m,0000000005Hz,0000093097c,0000000.202s, 031.5C,00002195
2016-08-19 22:32:42 r, 16.94m,0000000015Hz,0000030747c,0000000.067s, 031.5C,00002195
2016-08-19 22:42:42 r, 16.70m,0000000018Hz,0000024813c,0000000.054s, 031.5C,00002195
2016-08-19 22:52:42 r, 16.44m,0000000023Hz,0000019752c,0000000.043s, 031.9C,00002195
2016-08-19 23:02:42 r, 16.37m,0000000025Hz,0000018332c,0000000.040s, 031.9C,00002195
2016-08-19 23:12:42 r, 16.45m,0000000023Hz,0000019920c,0000000.043s, 031.9C,00002195
2016-08-19 23:22:43 r, 16.82m,0000000017Hz,0000027811c,0000000.060s, 031.9C,00002195
2016-08-19 23:32:42 r, 16.72m,0000000018Hz,0000025218c,0000000.055s, 031.9C,00002195
2016-08-19 23:42:42 r, 16.96m,0000000014Hz,0000031568c,0000000.069s, 031.9C,00002195
2016-08-19 23:52:43 r, 17.50m,0000000009Hz,0000051834c,0000000.112s, 031.9C,00002195
